Location: �terpigny
(49.8910°N, 2.9249°E)
Time: 23:50:51
(UTC+00:00)

EO-88 - Visible Passes

Search period start: 27 June 2022 00:00
Search period end: 07 July 2022 00:00
Orbit: 458 x 464 km, 97.3° (Epoch: 27 June)

Date Brightness Start Highest point End Pass type
(mag) Time Alt. Az. Time Alt. Az. Time Alt. Az.
27 Jun ? 20:56:23 10° SSE 20:59:50 69° ENE 21:03:18 10° N visible
28 Jun ? 21:58:38 10° SSW 22:01:24 22° W 22:04:10 10° NW visible
29 Jun ? 21:26:16 10° S 21:29:39 50° W 21:33:03 10° NNW visible
30 Jun ? 20:54:34 10° SSE 20:58:00 66° ENE 21:01:29 10° N visible
30 Jun ? 22:30:41 10° W 22:31:25 10° W 22:32:08 10° WNW visible
01 Jul ? 21:56:39 10° SSW 21:59:29 23° W 22:02:19 10° NW visible
02 Jul ? 21:24:16 10° S 21:27:40 53° W 21:31:05 10° NNW visible
03 Jul ? 20:52:32 10° SSE 20:55:58 62° ENE 20:59:24 10° N visible
03 Jul ? 22:28:17 10° WSW 22:29:20 11° W 22:30:23 10° WNW visible
04 Jul ? 21:54:27 10° SSW 21:57:20 24° W 22:00:13 10° NW visible
05 Jul ? 21:22:03 10° S 21:25:27 56° W 21:28:53 10° NNW visible
06 Jul ? 20:50:17 10° SSE 20:53:41 58° ENE 20:57:06 10° N visible
06 Jul ? 22:25:42 10° WSW 22:27:01 12° W 22:28:20 10° WNW visible
